DW7098 Weather Reports


time (UTC)temp
F
wind
direction
speed
knots
gust
knots
rain 1hr
in
rain 24hr
in
rain mn
in
humidity
%
barometer
mb
20260906103032 53 65 0.0 0.9 0.00 0.00 0.00
20260906100103 53 65 0.0 0.0 0.00 0.00 0.00
20260906093050 53 65 0.0 0.0 0.00 0.00 0.00
20260906090121 54 65 0.0 0.0 0.00 0.00 0.00
20260906073028 55 66 0.0 1.7 0.00 0.00 0.00
20260906070120 56 101 0.0 0.0 0.00 0.00 0.00
20260906053056 57 93 0.0 0.0 0.00 0.00 0.00
20260906050112 58 93 0.0 0.0 0.00 0.00 0.00
20260906030101 62 207 0.0 0.0 0.00 0.00 0.00
20260906023049 63 207 0.0 0.0 0.00 0.00 0.00
20260906013052 66 217 0.0 3.5 0.00 0.00 0.00
20260906010115 66 185 0.9 4.3 0.00 0.00 0.00
20260906003045 67 85 0.9 4.3 0.00 0.00 0.00
20260906000124 69 60 0.9 5.2 0.00 0.00 0.00
20260905233101 72 61 0.9 3.5 0.00 0.00 0.00
20260905230113 73 279 0.9 3.5 0.00 0.00 0.00
20260905223027 69 202 0.0 4.3 0.00 0.00 0.00
20260905210123 70 95 1.7 2.6 0.00 0.00 0.00
20260905203047 69 85 1.7 5.2 0.00 0.00 0.00
20260905200122 68 78 0.9 3.5 0.00 0.00 0.00
20260905193100 65 74 0.9 4.3 0.00 0.00 0.00
20260905190112 64 65 1.7 4.3 0.00 0.00 0.00
20260905183038 63 74 0.9 5.2 0.00 0.00 0.00
20260905180110 59 79 0.9 2.6 0.00 0.00 0.00
20260905173028 58 100 0.9 2.6 0.00 0.00 0.00
20260905170108 57 58 0.9 2.6 0.00 0.00 0.00
20260905163050 56 66 0.9 1.7 0.00 0.00 0.00
20260905160118 55 64 0.9 2.6 0.00 0.00 0.00
20260905153046 54 65 0.0 3.5 0.00 0.00 0.00
20260905150123 54 48 0.9 1.7 0.00 0.00 0.00
20260905143102 53 59 0.9 2.6 0.00 0.00 0.00
20260905140118 53 60 0.0 0.9 0.00 0.00 0.00
20260905133104 53 63 0.9 2.6 0.00 0.00 0.00
20260905130113 53 63 0.0 1.7 0.00 0.00 0.00
20260905120107 53 66 0.0 3.5 0.00 0.00 0.00
20260905113048 53 65 0.9 2.6 0.00 0.00 0.00